User: anonymous   Login
Location: Launay
(47.2429°N, 1.5727°E)
Time: 11:36:48
(UTC+00:00)
Language:

Cosmos 1535 Rocket - Orbit

View from above orbital plane
View from above orbital plane
View from above satellite
View from above satellite

Ground track
Ground track

The orbit data is extracted from the following two-line orbital elements,

1 14680U 84010B   25348.91131243  .00000080  00000-0  65397-4 0  9990
2 14680  82.9569 261.2039 0038352  16.4497  54.5825 13.76708287102679
Epoch (UTC): 14 December 2025 21:52:17
Eccentricity: 0.0038352
inclination: 82.9569°
perigee height: 947 km
apogee height: 1004 km
right ascension of ascending node: 261.2039°
argument of perigee: 16.4497°
revolutions per day: 13.76708287
mean anomaly at epoch: 54.5825°
orbit number at epoch: 10267

The dashed part of the orbit path shows where the satellite is in the earth's shadow,  

DLR